User: anonymous   Login
Location: Peebles
(55.6412°N, 3.1714°W)
Time: 13:00:55
(UTC+00:00)
Language:

COSMOS 2487 - Orbit

View from above orbital plane
View from above orbital plane
View from above satellite
View from above satellite

Ground track
Ground track

The orbit data is extracted from the following two-line orbital elements,

1 39194U 13032A   21341.49616116  .00008370  00000-0  16218-3 0  9999
2 39194  74.7069   2.6396 0005129 291.2742  68.7926 15.47775628473094
Epoch (UTC): 07 December 2021 11:54:28
Eccentricity: 0.0005129
inclination: 74.7069°
perigee height: 420 km
apogee height: 427 km
right ascension of ascending node: 2.6396°
argument of perigee: 291.2742°
revolutions per day: 15.47775628
mean anomaly at epoch: 68.7926°
orbit number at epoch: 47309

The dashed part of the orbit path shows where the satellite is in the earth's shadow,  

DLR